Regional Weather Roundup
Issued by NWS Memphis, TN

Home | Current Version | Previous Version | Text Only | Print | Product List | Glossary On
Versions: 1 2 3 4 5 6 7 8 9 10 11 12 13 14 15 16 17 18 19 20 21 22 23 24 25 26 27 28 29 30 31 32 33 34 35 36 37 38 39 40 41 42 43 44 45 46 47 48 49 50
000
ASUS44 KMEG 302210
RWRMEG
MEMPHIS CWA HOURLY WEATHER ROUNDUP
NATIONAL WEATHER SERVICE MEMPHIS TN
400 PM CST FRI JAN 30 2015

...WEST TENNESSEE...

CITY           SKY/WX    TMP DP  RH WIND       PRES   REMARKS
MEMPHIS INTL   MOSUNNY   51  20  29 N9        30.43S
NWS MEMPHIS      N/A     50 N/A N/A MISG        N/A
JACKSON        SUNNY     48  21  34 N6        30.43R
LEXINGTON      SUNNY     45  18  33 N6        30.41R
SAVANNAH       SUNNY     46  19  34 N8        30.41S
DYERSBURG      SUNNY     45  18  33 NE7       30.47R
UNION CITY     SUNNY     43  21  42 N6        30.44S
PARIS          SUNNY     41  18  38 N6        30.44R


...EASTERN ARKANSAS...

CITY           SKY/WX    TMP DP  RH WIND       PRES   REMARKS
JONESBORO      MOSUNNY   44  28  53 E8        30.46S
WEST MEMPHIS   SUNNY     49  27  42 N9        30.43S
BATESVILLE     MOSUNNY   48  23  37 E6        30.45S
NEWPORT        PTSUNNY   45  28  51 NE7       30.48S
WALNUT RIDGE   SUNNY     45  27  49 NE6       30.46F
BLYTHEVILLE    SUNNY     47  24  40 N8        30.46S
SEARCY         SUNNY     50  26  39 E8        30.46S
STUTTGART      SUNNY     48  25  40 N10       30.45F
PINE BLUFF     SUNNY     48  28  46 NE12      30.44F
MONTICELLO     SUNNY     51  29  42 NE9       30.42S


...NORTH MISSISSIPPI...

CITY           SKY/WX    TMP DP  RH WIND       PRES   REMARKS
TUPELO         SUNNY     50  24  36 NE7       30.40S
OXFORD         SUNNY     48  23  37 N6        30.41F
OLIVE BRANCH   MOSUNNY   46  25  42 N6        30.42F
TUNICA         SUNNY     48  28  46 N9        30.44S
CLARKSDALE     SUNNY     48  28  46 N12       30.44S
CORINTH        SUNNY     50  21  32 VRB3      30.41R
GRENADA        SUNNY     52  27  37 N8        30.41S
GREENWOOD      SUNNY     54  28  36 N8        30.39F
COLUMBUS       SUNNY     52  24  33 NW12      30.38F
STARKVILLE     FAIR      50  30  46 N8        30.38S
GOLDEN TRIANGL SUNNY     54  28  37 NW12      30.38S


...SOUTHEAST MISSOURI...

CITY           SKY/WX    TMP DP  RH WIND       PRES   REMARKS
WEST PLAINS    SUNNY     47  14  26 CALM      30.43S
POPLAR BLUFF   SUNNY     43  22  43 CALM      30.46S
CAPE GIRARDEAU SUNNY     43  21  41 CALM      30.47S


...NORTHWEST ALABAMA...

CITY           SKY/WX    TMP DP  RH WIND       PRES   REMARKS
MUSCLE SHOALS  SUNNY     49  21  33 NE5       30.40S


...MIDDLE TENNESSEE...

CITY           SKY/WX    TMP DP  RH WIND       PRES   REMARKS
NASHVILLE      MOSUNNY   44  20  38 N8        30.43S
CLARKSVILLE    SUNNY     43  19  38 N7        30.44R
COLUMBIA       SUNNY     45  19  36 N7        30.39S


...WESTERN KENTUCKY...

CITY           SKY/WX    TMP DP  RH WIND       PRES   REMARKS
PADUCAH        SUNNY     44  20  38 NE8       30.45S
FORT CAMPBELL  SUNNY     42  20  41 N6        30.44R


...CENTRAL ARKANSAS...

CITY           SKY/WX    TMP DP  RH WIND       PRES   REMARKS
LITTLE ROCK    PTSUNNY   52  22  30 N3        30.44F


SKY/WX REPORTED AS FAIR MEANS FEW OR NO CLOUDS BELOW
12 THOUSAND FEET.




USA.gov is the U.S. government's official web portal to all federal, state and local government web resources and services.